Regional Weather Roundup
Issued by NWS

Home | Current Version | Previous Version | Text Only | Print | Product List | Glossary On
Versions: 1 2 3 4 5 6 7 8 9 10 11 12 13 14 15 16 17 18 19 20 21 22 23 24 25 26 27 28 29 30 31 32 33 34 35 36 37 38 39 40 41 42 43 44 45 46 47 48 49 50
000
ASUS43 KDTX 232101
RWRMI
MICHIGAN HOURLY REGIONAL WEATHER ROUNDUP
NATIONAL WEATHER SERVICE DETROIT/PONTIAC MI
500 PM EDT THU MAR 23 2017

NOTE: "FAIR" INDICATES FEW OR NO CLOUDS BELOW 12,000 FEET WITH NO
SIGNIFICANT WEATHER AND/OR OBSTRUCTION TO VISIBILITY.

MIZ047>049-052>055-059>063-066>070-074>076-081>083-232200-
SOUTHEAST LOWER MICHIGAN

CITY           SKY/WX    TMP DP  RH WIND       PRES   REMARKS
ADRIAN         PTSUNNY   44  22  41 SE10      30.32F
ALMA           CLOUDY    42  15  32 S13G22    30.29F
ANN ARBOR      CLOUDY    41  12  30 E13       30.32F
BAD AXE        CLOUDY    40  12  32 S15G21    30.33F WCI  31
CARO           CLOUDY    41  11  29 S12       30.31F
DETROIT CITY   MOSUNNY   41  14  33 SE14      30.37F
DETROIT        PTSUNNY   42   4  20 SE12      30.36F
FLINT          CLOUDY    42  10  27 S13G22    30.31F
GROSSE ILE     SUNNY     41  16  35 SE8       30.35F
HILLSDALE      MOSUNNY   45  14  29 SE12G20   30.28F
HOWELL         CLOUDY    42   0  16 SE15      30.30F

CITY           SKY/WX    TMP DP  RH WIND       PRES   REMARKS
JACKSON        CLOUDY    45  14  28 S12G22    30.29F
LAMBERTVILLE   SUNNY     42  23  46 E10       30.33F
LANSING        CLOUDY    45  10  24 SE15      30.29F
LAPEER         CLOUDY    40  13  33 SE12      30.33F WCI  33
MASON          CLOUDY    42  19  38 SE9       30.30F
MONROE         SUNNY     39  24  55 E8G16     30.35F WCI  33
MT. CLEMENS    CLOUDY    38  13  36 SE14G20   30.36F WCI  29
PONTIAC        CLOUDY    42   5  21 S13       30.31F
PORT HOPE        N/A     35  20  54 SE13      30.32F WCI  26
PORT HURON     PTSUNNY   39   9  28 SE15      30.36F WCI  31
TRI CITIES     CLOUDY    43  13  29 S12       30.30F
MIDLAND        CLOUDY    43  11  27 S6        30.29F
TROY           CLOUDY    41   9  26 E7        30.36F
SAGINAW HB     CLOUDY    43   5  21 S12       30.30F
$$
MIZ043>046-050>051-056>058-064>065-071>073-077>080-232200-
SOUTHWEST LOWER MICHIGAN

CITY           SKY/WX    TMP DP  RH WIND       PRES   REMARKS
BATTLE CREEK   MOSUNNY   46  13  26 S15G24    30.27F
BENTON HARBOR  CLOUDY    45  17  32 SE15G23   30.23F
BIG RAPIDS     CLOUDY    40  11  30 S8        30.25F WCI  35
COLDWATER      CLOUDY    46  15  28 SE8G20    30.28F
FREMONT        CLOUDY    44   7  21 SE10G16   30.23F
HOLLAND        CLOUDY    48  11  22 SE16      30.24F
GRAND RAPIDS   CLOUDY    47  10  22 S15       30.25F
IONIA          CLOUDY    44  13  29 SE15      30.27F
KALAMAZOO      PTSUNNY   47  13  25 SE16G22   30.26F
LUDINGTON      CLOUDY    42  15  34 SE12      30.21F
MARSHALL       PTSUNNY   46  11  24 S15G21    30.27F
MOUNT PLEASANT CLOUDY    41  12  30 S8        30.28F
MUSKEGON       CLOUDY    47   8  20 SE13G21   30.23F
SOUTH HAVEN    CLOUDY    45  13  28 S9        30.24F
$$
MIZ016>042-232200-
NORTHERN LOWER MICHIGAN

CITY           SKY/WX    TMP DP  RH WIND       PRES   REMARKS
ALPENA         CLOUDY    36  21  54 SE10      30.31F WCI  28
BEAVER ISLAND  CLOUDY    36  15  41 S7        30.23F WCI  31
BELLAIRE       CLOUDY    39  10  30 S8        30.26F WCI  33
CADILLAC       CLOUDY    38   6  25 S13G20    30.23S WCI  30
CHARLEVOIX     CLOUDY    39  11  31 S8        30.27F WCI  33
FRANKFORT      CLOUDY    40   6  24 SE12      30.21F WCI  33
GAYLORD        CLOUDY    39   8  27 S15       30.24F WCI  31
GRAYLING       CLOUDY    37  10  32 SE10      30.26F WCI  30
HARBOR SPRINGS CLOUDY    38  10  30 S6        30.26S WCI  34
HOUGHTON LAKE  CLOUDY    38  12  34 S12       30.27F WCI  30
MANISTEE       CLOUDY    40  10  29 VRB7      30.21F
OSCODA         CLOUDY    37  19  48 E5        30.32F WCI  33
PELLSTON       CLOUDY    39   7  26 S8        30.26F WCI  33
ROGERS CITY    CLOUDY    39  10  29 S12       30.29F WCI  32
TRAVERSE CITY  CLOUDY    41   4  21 VRB7      30.23F
$$
MIZ007>008-015-232200-
EASTERN UPPER MICHIGAN

CITY           SKY/WX    TMP DP  RH WIND       PRES   REMARKS
KINROSS        CLOUDY    34  22  61 SE13      30.25F WCI  25
MACKINAC ISLAN CLOUDY    35  24  64 CALM      30.25F
NEWBERRY       CLOUDY    33  16  50 S10G18    30.21F WCI  25
S. S. MARIE    CLOUDY    35  19  52 SE13      30.25F WCI  26
MUNISING         N/A     35  19  52 S18G24    30.14F WCI  24
$$
MIZ004>006-011>014-085-232200-
CENTRAL UPPER MICHIGAN

CITY           SKY/WX    TMP DP  RH WIND       PRES   REMARKS
MANISTIQUE     CLOUDY    34  25  69 S8        30.21F WCI  27
ESCANABA       CLOUDY    34  27  75 S13       30.18F WCI  25
MENOMINEE        N/A    N/A N/A N/A MISG        N/A
SAWYER-GWINN   CLOUDY    32  23  69 S15G22    30.10F WCI  22
$$
MIZ001>003-009>011-084-232200-
WESTERN UPPER MICHIGAN

CITY           SKY/WX    TMP DP  RH WIND       PRES   REMARKS
IRON MOUNTAIN  CLOUDY    35  22  58 S13       30.09F WCI  26
HOUGHTON       CLOUDY    34  20  56 S14G22    30.02F WCI  25
COPPER HARBOR    N/A     34  24  67 SW10G21   30.05S WCI  26
IRONWOOD       LGT RAIN  38  22  52 S12G18    29.96F WCI  30
$$

ABBREVIATIONS USED IN REMARKS
   TC - TEMPERATURE IN CELSIUS
  WCI - WIND CHILL INDEX
   HX - HEAT INDEX
  VSB - VISIBILITY




USA.gov is the U.S. government's official web portal to all federal, state and local government web resources and services.